Regional Weather Roundup
Issued by NWS

Home | Current Version | Previous Version | Text Only | Print | Product List | Glossary Off
Versions: 1 2 3 4 5 6 7 8 9 10 11 12 13 14 15 16 17 18 19 20 21 22 23 24 25 26 27 28

000
ASUS45 KBOI 050410
RWRID

IDAHO REGIONAL WEATHER ROUNDUP
NATIONAL WEATHER SERVICE BOISE ID
1000 PM MDT WED MAY 04 2016

NOTE: "FAIR" INDICATES FEW OR NO CLOUDS BELOW 12000 FEET
WITH NO SIGNIFICANT WEATHER AND/OR OBSTRUCTIONS TO VISIBILITY

IDZ012-014-050500-
SOUTHWEST IDAHO


CITY           SKY/WX    TMP DP  RH WIND       PRES   REMARKS
BOISE          MOCLDY    73  35  25 SE9       29.79S
CALDWELL       MOCLDY    68  48  48 SW6       29.78R
MOUNTAIN HOME  CLOUDY    67  41  38 E7        29.80R
$$

IDZ016-017-050500-
SOUTHCENTRAL IDAHO


CITY           SKY/WX    TMP DP  RH WIND       PRES   REMARKS
BURLEY         CLOUDY    59  41  51 CALM      29.93R
JEROME         CLOUDY    64  37  36 E10       29.91R
TWIN FALLS     CLOUDY    64  33  31 SE14      29.90S
$$

IDZ019>023-050500-
SOUTHEAST IDAHO


CITY           SKY/WX    TMP DP  RH WIND       PRES   REMARKS
IDAHO FALLS    CLOUDY    64  33  31 S5        30.01S
POCATELLO      CLOUDY    58  37  45 E3        29.99R
REXBURG        CLOUDY    63  33  32 S5        30.02R
$$

IDZ006-010-011-018-031-032-050500-
CENTRAL IDAHO MOUNTAINS


CITY           SKY/WX    TMP DP  RH WIND       PRES   REMARKS
MCCALL         MOCLDY    57  36  45 NE6       29.93R
HAILEY         PTCLDY    61  37  41 CALM      30.01R
STANLEY          N/A     49  32  52 S5        30.05R
SALMON         CLOUDY    63  34  34 CALM      29.89R
CHALLIS        MOCLDY    59  29  31 SW5       29.97R
$$

IDZ002-004-006-007-026-050500-
NORTHERN IDAHO


CITY           SKY/WX    TMP DP  RH WIND       PRES   REMARKS
LEWISTON       MOCLDY    71  50  47 SW7       29.77R
LOWELL           N/A     62  54  74 CALM      29.80R
COEUR D`ALENE  MOCLDY    61  46  59 N3        29.80S
MULLAN PASS    CLOUDY    56  33  42 SE5       29.99S
$$




USA.gov is the U.S. government's official web portal to all federal, state and local government web resources and services.